Weather History for KBID - December, 2013

Change the Weather History Date:

Sunday, December 8, 2013

  Actual Average Record
Temperature  
Mean Temperature 32 °F -  
Max Temperature 33 °F 45 °F 64 °F (1953)
Min Temperature 30 °F 33 °F 15 °F (1976)
Degree Days  
Heating Degree Days 34    
Moisture  
Dew Point 18 °F    
Average Humidity 56    
Maximum Humidity 75    
Minimum Humidity 41    
Precipitation  
Precipitation 0.00 in - - ()
Sea Level Pressure  
Sea Level Pressure 30.51 in    
Wind  
Wind Speed 9 mph (NNE)    
Max Wind Speed 15 mph    
Max Gust Speed 25 mph    
Visibility 10 miles    
Events      
Averages and records for this station are not official NWS values.
T = Trace of Precipitation, MM = Missing Value Source: NWS Daily Summary

Daily Weather History Graph

Daily Weather History Graph

Search for Another Location

Airport or City:

Trip Planner

Search our weather history database for the weather conditions in past years. The results will help you decide how hot, cold, wet, or windy it might be!

Date:

Astronomy

Dec. 08, 2013 Rise Set
Actual Time 6:59 AM EST 4:17 PM EST
Civil Twilight 6:28 AM EST 4:48 PM EST
Nautical Twilight 5:53 AM EST 5:22 PM EST
Astronomical Twilight 5:20 AM EST 5:56 PM EST
Moon 11:15 AM EST (12/8) 11:06 PM EST (12/8)
Length of Visible Light 10h 20m
Length of Day
9h 18m
Waxing Crescent, 40% of the Moon is Illuminated
Dec 8
Waxing Crescent
Dec 9
First Quarter
Dec 17
Full
Dec 25
Last Quarter
Jan 1
New

Hourly Weather History & Observations

Time (EST) Temp. Windchill Dew Point Humidity Pressure Visibility Wind Dir Wind Speed Gust Speed Precip Events Conditions
12:15 AM 33.8 °F 24.3 °F 19.4 °F 56% 30.45 in 10.0 mi NNW 13.8 mph 19.6 mph N/A   Clear
12:35 AM 33.8 °F 25.3 °F 19.4 °F 56% 30.45 in 10.0 mi NNW 11.5 mph 17.3 mph N/A   Clear
12:55 AM 32.0 °F 23.0 °F 19.4 °F 60% 30.45 in 10.0 mi NNW 11.5 mph 19.6 mph N/A   Clear
1:15 AM 32.0 °F 24.8 °F 19.4 °F 60% 30.45 in 10.0 mi NNW 8.1 mph - N/A   Clear
1:35 AM 32.0 °F 24.2 °F 19.4 °F 60% 30.46 in 10.0 mi NNW 9.2 mph - N/A   Clear
1:55 AM 32.0 °F 24.2 °F 19.4 °F 60% 30.46 in 10.0 mi NNW 9.2 mph - N/A   Clear
2:15 AM 32.0 °F 23.6 °F 17.6 °F 55% 30.46 in 10.0 mi NNW 10.4 mph - N/A   Clear
2:35 AM 30.2 °F 21.3 °F 19.4 °F 64% 30.46 in 10.0 mi NNW 10.4 mph 16.1 mph N/A   Clear
2:55 AM 30.2 °F 20.2 °F 19.4 °F 64% 30.47 in 10.0 mi NNW 12.7 mph - N/A   Clear
3:15 AM 30.2 °F 20.8 °F 17.6 °F 60% 30.47 in 10.0 mi NNW 11.5 mph 17.3 mph N/A   Clear
3:35 AM 30.2 °F 21.9 °F 17.6 °F 60% 30.48 in 10.0 mi NNW 9.2 mph - N/A   Clear
3:55 AM 30.2 °F 21.9 °F 17.6 °F 60% 30.49 in 10.0 mi NNW 9.2 mph 17.3 mph N/A   Clear
4:15 AM 30.2 °F 21.9 °F 17.6 °F 60% 30.50 in 10.0 mi North 9.2 mph - N/A   Clear
4:35 AM 30.2 °F 21.9 °F 17.6 °F 60% 30.50 in 10.0 mi NNW 9.2 mph - N/A   Clear
4:55 AM 30.2 °F 20.8 °F 17.6 °F 60% 30.51 in 10.0 mi NNW 11.5 mph - N/A   Clear
5:15 AM 30.2 °F 21.9 °F 17.6 °F 60% 30.52 in 10.0 mi North 9.2 mph 16.1 mph N/A   Clear
5:35 AM 30.2 °F 21.9 °F 17.6 °F 60% 30.52 in 10.0 mi NNW 9.2 mph - N/A   Clear
5:55 AM 30.2 °F 23.4 °F 17.6 °F 60% 30.52 in 10.0 mi North 6.9 mph - N/A   Clear
6:15 AM 30.2 °F 21.9 °F 17.6 °F 60% 30.53 in 10.0 mi North 9.2 mph - N/A   Clear
6:35 AM 30.2 °F 22.6 °F 17.6 °F 60% 30.55 in 10.0 mi NNE 8.1 mph - N/A   Clear
6:55 AM 30.2 °F 22.6 °F 17.6 °F 60% 30.55 in 10.0 mi NNE 8.1 mph - N/A   Clear
7:15 AM 30.2 °F 23.4 °F 17.6 °F 60% 30.55 in 10.0 mi NNE 6.9 mph - N/A   Clear
7:35 AM 30.2 °F 22.6 °F 17.6 °F 60% 30.55 in 10.0 mi North 8.1 mph - N/A   Clear
7:55 AM 30.2 °F 22.6 °F 15.8 °F 55% 30.54 in 10.0 mi NNE 8.1 mph - N/A   Clear
8:15 AM 32.0 °F 24.8 °F 15.8 °F 51% 30.55 in 10.0 mi NNE 8.1 mph - N/A   Clear
8:35 AM 32.0 °F 23.6 °F 15.8 °F 51% 30.56 in 10.0 mi North 10.4 mph - N/A   Clear
8:55 AM 32.0 °F 25.6 °F 14.0 °F 48% 30.57 in 10.0 mi NNE 6.9 mph - N/A   Clear
9:15 AM 32.0 °F 25.6 °F 14.0 °F 48% 30.57 in 10.0 mi North 6.9 mph - N/A   Clear
9:35 AM 32.0 °F 24.8 °F 14.0 °F 48% 30.58 in 10.0 mi North 8.1 mph - N/A   Clear
9:55 AM 32.0 °F 25.6 °F 14.0 °F 48% 30.59 in 10.0 mi North 6.9 mph - N/A   Clear
10:15 AM 33.8 °F 27.7 °F 15.8 °F 48% 30.58 in 10.0 mi North 6.9 mph - N/A   Clear
10:35 AM 32.0 °F 24.8 °F 14.0 °F 48% 30.57 in 10.0 mi NNE 8.1 mph - N/A   Clear
10:55 AM 33.8 °F 28.6 °F 14.0 °F 44% 30.56 in 10.0 mi NNE 5.8 mph - N/A   Clear
11:15 AM 33.8 °F 27.0 °F 14.0 °F 44% 30.56 in 10.0 mi NNE 8.1 mph - N/A   Clear
11:35 AM 33.8 °F 27.0 °F 15.8 °F 48% 30.53 in 10.0 mi NE 8.1 mph - N/A   Partly Cloudy
11:55 AM 32.0 °F 26.4 °F 14.0 °F 48% 30.53 in 10.0 mi NNE 5.8 mph - N/A   Mostly Cloudy
12:15 PM 33.8 °F 28.6 °F 12.2 °F 41% 30.54 in 10.0 mi ENE 5.8 mph - N/A   Mostly Cloudy
12:35 PM 33.8 °F 29.6 °F 14.0 °F 44% 30.54 in 10.0 mi NNE 4.6 mph - N/A   Mostly Cloudy
12:55 PM 32.0 °F 26.4 °F 14.0 °F 48% 30.52 in 10.0 mi NNE 5.8 mph - N/A   Mostly Cloudy
1:15 PM 32.0 °F 27.5 °F 14.0 °F 48% 30.51 in 10.0 mi ENE 4.6 mph - N/A   Overcast
1:35 PM 32.0 °F 26.4 °F 15.8 °F 51% 30.52 in 10.0 mi NE 5.8 mph - N/A   Overcast
1:55 PM 33.8 °F 27.0 °F 15.8 °F 48% 30.52 in 10.0 mi NNE 8.1 mph - N/A   Overcast
2:15 PM 32.0 °F 26.4 °F 15.8 °F 51% 30.51 in 10.0 mi North 5.8 mph - N/A   Overcast
2:35 PM 33.8 °F 28.6 °F 15.8 °F 48% 30.51 in 10.0 mi NNE 5.8 mph - N/A   Scattered Clouds
2:55 PM 33.8 °F - 15.8 °F 48% 30.52 in 10.0 mi Calm Calm - N/A   Scattered Clouds
3:15 PM 33.8 °F 30.8 °F 15.8 °F 48% 30.52 in 10.0 mi East 3.5 mph - N/A   Mostly Cloudy
3:35 PM 33.8 °F 29.6 °F 15.8 °F 48% 30.52 in 10.0 mi ENE 4.6 mph - N/A   Overcast
3:55 PM 32.0 °F - 15.8 °F 51% 30.51 in 10.0 mi Calm Calm - N/A   Partly Cloudy
4:15 PM 33.8 °F 29.6 °F 15.8 °F 48% 30.53 in 10.0 mi ENE 4.6 mph - N/A   Mostly Cloudy
4:35 PM 33.8 °F 30.8 °F 15.8 °F 48% 30.53 in 10.0 mi ENE 3.5 mph - N/A   Overcast
4:55 PM 33.8 °F 30.8 °F 15.8 °F 48% 30.53 in 10.0 mi ENE 3.5 mph - N/A   Overcast
5:15 PM 33.8 °F 30.8 °F 17.6 °F 52% 30.54 in 10.0 mi NNE 3.5 mph - N/A   Overcast
5:35 PM 33.8 °F 29.6 °F 15.8 °F 48% 30.53 in 10.0 mi NNE 4.6 mph - N/A   Overcast
5:55 PM 33.8 °F 29.6 °F 17.6 °F 52% 30.52 in 10.0 mi NNE 4.6 mph - N/A   Overcast
6:15 PM 33.8 °F 28.6 °F 17.6 °F 52% 30.52 in 10.0 mi NNE 5.8 mph - N/A   Overcast
6:35 PM 33.8 °F 29.6 °F 17.6 °F 52% 30.53 in 10.0 mi NNE 4.6 mph - N/A   Overcast
6:55 PM 33.8 °F 28.6 °F 17.6 °F 52% 30.52 in 10.0 mi NE 5.8 mph - N/A   Overcast
7:15 PM 33.8 °F 27.7 °F 19.4 °F 56% 30.51 in 10.0 mi NE 6.9 mph - N/A   Overcast
7:35 PM 33.8 °F 28.6 °F 19.4 °F 56% 30.52 in 10.0 mi NE 5.8 mph - N/A   Overcast
7:55 PM 33.8 °F 27.7 °F 19.4 °F 56% 30.52 in 10.0 mi NE 6.9 mph - N/A   Overcast
8:15 PM 33.8 °F 27.7 °F 19.4 °F 56% 30.51 in 10.0 mi ENE 6.9 mph - N/A   Overcast
8:35 PM 33.8 °F 26.4 °F 19.4 °F 56% 30.51 in 10.0 mi ENE 9.2 mph - N/A   Overcast
8:55 PM 33.8 °F 27.7 °F 21.2 °F 60% 30.50 in 10.0 mi ENE 6.9 mph - N/A   Overcast
9:15 PM 33.8 °F 25.8 °F 21.2 °F 60% 30.50 in 10.0 mi ENE 10.4 mph - N/A   Mostly Cloudy
9:35 PM 33.8 °F 25.3 °F 21.2 °F 60% 30.49 in 10.0 mi ENE 11.5 mph 16.1 mph N/A   Overcast
9:55 PM 33.8 °F 25.8 °F 23.0 °F 65% 30.46 in 10.0 mi ENE 10.4 mph - N/A   Overcast
10:15 PM 33.8 °F 25.3 °F 24.8 °F 70% 30.45 in 10.0 mi ENE 11.5 mph 18.4 mph N/A   Overcast
10:35 PM 33.8 °F 23.9 °F 26.6 °F 75% 30.43 in 10.0 mi ENE 15.0 mph 20.7 mph N/A   Overcast
10:55 PM 33.8 °F 24.3 °F 26.6 °F 75% 30.42 in 10.0 mi East 13.8 mph 20.7 mph N/A   Overcast
11:15 PM 33.8 °F 24.3 °F 26.6 °F 75% 30.43 in 10.0 mi ENE 13.8 mph 19.6 mph N/A   Overcast
11:35 PM 33.8 °F 23.9 °F 26.6 °F 75% 30.42 in 10.0 mi ENE 15.0 mph 23.0 mph N/A   Overcast
11:55 PM 33.8 °F 23.9 °F 26.6 °F 75% 30.44 in 10.0 mi ENE 15.0 mph 25.3 mph N/A   Overcast